Date,TemperatureHighF,TemperatureAvgF,TemperatureLowF,DewpointHighF,DewpointAvgF,DewpointLowF,HumidityHigh,HumidityAvg,HumidityLow,PressureMaxIn,PressureMinIn,WindSpeedMaxMPH,WindSpeedAvgMPH,GustSpeedMaxMPH,PrecipitationSumIn
2013-1-1,39.4,36.0,27.3,27.2,23.4,10.3,65,60,48,29.59,29.43,8,1,11,0.00
2013-1-2,34.5,29.1,21.9,13.3,10.9,7.8,56,46,37,29.66,29.55,7,2,11,0.00
2013-1-3,31.8,31.8,31.8,12.4,12.4,12.4,44,44,44,29.66,29.66,2,2,8,0.00
2013-1-4,37.2,33.1,31.3,18.0,15.5,12.4,53,48,43,29.73,29.57,8,2,10,0.00
2013-1-5,42.6,32.9,27.9,21.4,17.3,12.6,66,53,43,29.91,29.63,6,1,11,0.00
2013-1-6,47.3,38.1,30.7,31.8,25.5,19.3,85,62,37,29.79,29.57,7,1,11,0.04
2013-1-7,48.9,37.4,27.0,31.0,23.3,18.2,71,57,36,29.98,29.65,5,1,9,0.00
2013-1-8,48.0,35.5,25.5,30.4,24.8,18.4,79,66,48,29.98,29.92,6,1,11,0.00
2013-1-9,49.8,41.0,31.1,36.1,31.8,25.1,80,70,52,29.96,29.74,5,1,10,0.00
2013-1-10,51.3,41.9,34.9,28.9,24.0,20.6,59,49,34,30.10,29.85,5,1,8,0.00
2013-1-11,45.3,39.7,32.2,41.6,31.1,20.7,93,72,54,30.09,29.65,4,0,6,0.38
2013-1-12,52.5,44.4,41.2,44.5,41.4,39.3,94,89,74,29.74,29.65,2,0,4,0.01
2013-1-13,49.5,45.2,42.1,47.3,43.2,40.2,93,93,92,29.72,29.56,4,0,6,0.00
2013-1-14,53.2,49.3,39.0,51.0,43.3,28.8,93,81,49,29.86,29.49,4,1,8,0.12
2013-1-15,39.0,36.0,32.9,35.8,27.4,23.9,88,71,61,29.92,29.76,4,1,8,0.21
2013-1-16,35.1,33.3,31.6,31.0,29.3,27.7,86,85,83,29.76,29.39,4,1,8,0.66
2013-1-17,43.2,37.6,34.9,31.5,26.7,22.8,85,65,53,29.67,29.50,7,1,10,0.01
2013-1-18,35.4,29.5,23.9,25.4,9.8,-0.8,76,45,24,30.05,29.57,8,2,14,0.00
2013-1-19,50.5,38.5,26.2,27.7,21.2,7.0,69,50,34,29.97,29.50,8,2,11,0.00
2013-1-20,55.2,41.6,27.9,28.3,18.4,1.1,66,42,20,29.62,29.32,17,3,30,0.00
2013-1-21,31.6,26.6,19.6,18.8,6.8,0.1,73,44,29,29.67,29.43,9,1,13,0.00
2013-1-22,23.4,17.0,10.4,4.7,-10.4,-16.7,47,29,20,29.81,29.44,10,3,17,0.00
2013-1-23,20.3,12.7,8.1,-3.9,-10.6,-17.5,53,34,23,29.90,29.75,5,2,8,0.00
2013-1-24,26.1,16.9,9.7,-0.4,-6.9,-15.0,57,36,21,30.01,29.67,11,2,15,0.00
2013-1-25,22.3,15.1,9.1,8.7,-3.2,-13.6,72,46,26,30.01,29.63,8,1,9,0.00
2013-1-26,30.4,18.2,8.1,8.0,2.4,-2.4,73,52,27,29.96,29.62,6,1,12,0.01
2013-1-27,36.5,22.8,10.2,11.1,5.3,-3.0,62,48,27,30.12,29.96,8,1,11,0.00
2013-1-28,34.3,30.0,21.9,30.9,22.7,8.7,87,75,53,30.07,29.59,5,1,10,0.20
2013-1-29,51.1,42.4,32.5,42.8,37.6,29.1,91,83,71,29.72,29.58,4,1,6,0.00
2013-1-30,65.8,53.5,42.4,56.0,49.1,40.1,92,85,70,29.61,28.92,11,2,15,0.32
2013-1-31,60.8,42.7,27.0,56.4,26.1,1.0,90,55,27,29.42,28.67,18,6,34,0.67
2013-2-1,30.6,25.6,19.2,15.8,1.5,-7.2,70,36,21,29.84,29.40,8,3,15,0.00
2013-2-2,28.9,22.1,14.0,17.6,1.5,-6.9,77,42,22,29.87,29.59,8,2,13,0.00
2013-2-3,31.8,25.0,21.0,19.5,16.0,11.3,78,68,53,29.59,29.38,8,1,13,0.00
2013-2-4,29.7,24.4,17.4,15.7,5.1,-1.6,62,44,29,29.60,29.42,11,2,17,0.00
2013-2-5,32.4,29.3,26.8,25.7,21.4,15.5,82,72,62,29.52,29.44,4,0,6,0.00
2013-2-6,39.9,30.4,24.1,25.6,18.7,8.0,83,63,42,29.92,29.49,9,1,13,0.02
2013-2-7,34.2,27.9,21.4,17.5,10.1,3.3,59,47,30,30.04,29.83,7,1,10,0.01
2013-2-8,34.7,32.6,30.4,29.8,26.8,17.5,86,79,57,29.83,29.25,10,3,16,0.30
2013-2-9,37.0,27.7,19.9,27.4,12.7,0.6,86,56,29,29.93,29.35,8,2,13,0.06
2013-2-10,42.8,28.5,13.5,17.1,5.0,-0.8,59,39,21,30.05,29.86,5,1,10,0.04
2013-2-11,47.7,38.7,30.9,44.9,33.6,16.6,90,82,54,29.87,29.24,4,1,8,0.28
2013-2-12,48.4,39.2,28.6,36.9,23.2,17.4,90,54,36,29.57,29.34,9,2,17,0.01
2013-2-13,29.3,27.9,25.9,19.4,17.9,15.7,67,65,62,29.54,29.49,2,0,2,0.00
2013-2-14,34.2,32.5,31.3,25.6,24.7,22.8,77,73,64,29.58,29.55,0,0,2,0.00
2013-2-15,57.4,48.5,30.7,32.1,28.6,23.1,82,48,31,29.65,29.49,8,2,13,0.02
2013-2-16,38.1,33.3,28.4,29.4,21.6,8.8,85,63,43,29.56,29.34,8,1,14,0.04
2013-2-17,32.5,26.0,18.5,9.2,-1.7,-12.2,50,29,24,29.64,29.31,12,4,17,0.00
2013-2-18,39.0,26.1,16.2,7.4,-1.1,-11.4,41,30,21,29.87,29.64,8,2,12,0.00
2013-2-19,43.5,36.3,26.6,39.0,25.6,7.0,88,66,40,29.75,29.26,9,2,16,0.15
2013-2-20,33.8,28.3,22.8,22.1,7.0,-0.6,63,41,27,29.60,29.34,10,3,18,0.00
2013-2-21,37.6,27.7,21.9,11.6,7.3,3.6,51,42,28,29.86,29.58,10,3,16,0.00
2013-2-22,37.4,29.5,20.7,25.7,15.5,7.7,73,56,44,29.95,29.80,6,1,9,0.00
2013-2-23,45.0,38.6,32.7,41.3,34.8,25.7,90,86,73,29.81,29.37,6,1,11,0.13
2013-2-24,49.5,37.2,28.0,37.2,26.2,12.7,89,66,47,29.59,29.34,9,2,15,0.01
2013-2-25,46.6,35.3,25.9,26.4,19.5,12.8,66,53,37,29.80,29.59,7,1,10,0.00
2013-2-26,45.5,35.3,26.1,32.0,25.1,17.3,84,67,46,29.81,29.36,11,3,20,0.47
2013-2-27,51.8,43.3,36.3,43.8,36.7,31.2,89,78,59,29.36,29.08,14,3,21,0.25
2013-2-28,48.2,41.0,33.4,33.0,28.3,20.6,77,61,38,29.24,29.15,8,1,10,0.00
2013-3-1,45.0,37.0,29.8,29.6,24.4,19.7,80,61,44,29.39,29.21,8,2,11,0.00
2013-3-2,42.1,34.5,29.8,21.3,18.1,15.5,60,51,40,29.39,29.30,9,2,12,0.00
2013-3-3,39.2,31.1,24.1,17.0,12.9,9.9,57,47,33,29.37,29.29,8,2,14,0.00
2013-3-4,42.1,33.4,28.2,17.1,13.7,8.6,58,44,32,29.52,29.37,10,3,18,0.00
2013-3-5,50.4,38.1,28.8,24.8,19.9,16.4,64,49,31,29.60,29.50,6,1,10,0.00
2013-3-6,40.8,36.4,32.9,32.9,28.3,22.3,83,72,63,29.51,29.33,14,5,24,0.24
2013-3-7,47.5,39.1,33.1,27.6,23.2,20.1,76,53,38,29.67,29.50,11,3,14,0.00
2013-3-8,42.3,34.6,28.6,29.7,24.7,18.8,83,68,51,29.80,29.61,8,2,14,0.17
2013-3-9,64.6,45.2,27.7,22.0,15.9,5.6,63,35,15,29.88,29.76,7,1,9,0.00
2013-3-10,59.5,44.2,32.5,34.7,24.3,1.9,81,48,22,29.93,29.82,5,2,10,0.00
2013-3-11,60.1,46.8,35.8,45.9,39.1,30.5,94,77,41,29.87,29.62,8,2,11,0.00
2013-3-12,57.4,50.7,39.0,54.6,46.1,31.6,93,84,71,29.62,29.26,12,3,20,0.89
2013-3-13,52.2,40.5,31.1,31.8,24.8,17.7,75,55,32,29.52,29.40,8,2,14,0.00
2013-3-14,42.8,34.4,27.0,18.7,9.7,0.7,70,37,22,29.57,29.48,11,3,16,0.00
2013-3-15,51.3,38.4,25.2,28.6,15.6,3.8,53,39,28,29.59,29.30,11,2,17,0.00
2013-3-16,43.9,35.6,31.3,28.3,25.6,16.3,86,68,43,29.50,29.33,5,0,8,0.00
2013-3-17,42.6,32.4,26.6,28.1,19.0,12.5,87,60,36,29.86,29.49,6,1,9,0.15
2013-3-18,28.4,28.2,27.5,14.7,12.0,11.6,56,50,49,29.86,29.85,2,0,4,0.00
2013-3-19,28.2,28.2,28.2,12.0,12.0,12.0,50,50,50,29.86,29.86,0,0,2,0.00
2013-3-20,38.3,32.0,26.8,21.7,18.3,14.2,78,58,42,29.73,29.57,3,0,5,0.11
2013-3-21,37.9,28.7,26.4,17.4,5.9,1.9,56,38,33,29.86,29.32,4,2,9,1.26
2013-3-22,42.4,32.7,25.5,17.5,13.1,4.6,58,44,31,29.50,29.33,9,3,17,0.00
2013-3-23,51.4,37.3,28.2,17.5,14.3,10.2,55,40,24,29.52,29.43,8,2,14,0.00
2013-3-24,49.1,37.9,26.6,23.4,14.6,9.7,56,40,23,29.54,29.25,6,1,9,0.00
2013-3-25,36.3,34.4,32.0,30.5,27.0,19.9,88,75,51,29.26,29.04,9,1,14,0.54
2013-3-26,53.1,39.8,32.4,34.4,29.1,18.9,88,70,28,29.36,29.20,6,1,9,0.02
2013-3-27,53.6,48.6,31.5,29.6,23.8,16.6,85,39,25,29.54,29.49,11,3,14,0.00
2013-3-28,50.0,44.7,31.5,29.2,25.1,19.7,69,46,34,29.72,29.56,8,2,12,0.00
2013-3-29,56.7,44.2,30.6,27.8,24.1,18.2,67,47,24,29.75,29.66,7,1,9,0.00
2013-3-30,61.3,45.5,29.3,28.9,22.3,15.4,76,44,19,29.76,29.66,6,1,10,0.00
2013-3-31,56.8,45.5,35.1,45.9,34.4,23.9,96,68,31,29.70,29.28,13,2,17,0.09
2013-4-1,63.7,48.5,35.1,45.9,33.2,8.1,96,61,26,29.51,29.24,11,2,19,0.00
2013-4-2,45.5,37.1,28.4,15.2,7.9,2.9,45,30,20,29.68,29.51,11,2,17,0.00
2013-4-3,49.5,37.3,27.3,12.9,7.9,1.5,46,30,20,29.88,29.68,11,2,18,0.00
2013-4-4,54.9,39.8,25.0,26.1,13.8,3.3,56,36,20,29.97,29.65,6,1,10,0.00
2013-4-5,66.0,49.9,37.2,33.5,23.6,12.3,79,42,15,29.66,29.32,9,2,14,0.00
2013-4-6,54.5,43.5,32.4,29.3,16.6,10.4,65,36,18,29.88,29.59,8,2,11,0.00
2013-4-7,64.4,50.4,37.6,44.1,35.6,28.3,78,58,41,29.87,29.56,10,2,17,0.00
2013-4-8,80.4,64.4,48.2,52.7,45.3,38.0,80,53,27,29.65,29.54,6,1,11,0.00
2013-4-9,85.6,72.1,58.6,54.1,49.6,40.8,76,48,25,29.59,29.48,11,2,14,0.00
2013-4-10,90.0,75.0,60.1,60.8,55.9,51.3,99,56,32,29.52,29.35,10,2,17,0.57
2013-4-11,65.8,58.7,47.8,61.9,54.6,43.7,99,87,64,29.53,29.36,11,2,17,0.01
2013-4-12,47.7,43.5,41.4,44.9,42.7,41.1,99,97,86,29.52,29.25,11,3,20,0.56
2013-4-13,61.2,52.1,37.0,49.0,37.4,32.3,99,63,37,29.49,29.32,8,1,13,0.01
2013-4-14,60.1,60.1,60.1,35.1,35.1,35.1,39,39,39,29.45,29.45,2,2,7,0.01
2013-4-15,47.8,40.9,27.7,12.7,8.8,5.6,45,27,20,30.20,30.12,6,3,10,0.00
2013-4-16,40.1,30.9,25.3,12.8,6.3,2.9,50,36,23,30.38,30.24,4,1,6,0.00
2013-4-17,54.0,47.3,36.5,25.7,15.3,9.4,52,28,21,30.37,30.11,4,2,7,0.00
2013-4-18,41.2,39.2,37.4,31.7,27.9,24.9,79,65,54,30.11,29.90,2,0,4,0.00
2013-4-19,65.7,56.7,39.2,32.8,20.8,13.9,74,28,16,29.91,29.73,4,2,6,0.00
2013-4-20,60.3,52.0,38.5,35.8,27.6,21.0,60,39,28,30.30,29.95,7,2,14,1.72
2013-4-21,56.5,44.9,32.0,29.7,22.5,17.6,69,43,24,30.58,30.30,6,1,9,0.00
2013-4-22,55.2,44.1,32.4,38.7,31.8,26.9,85,64,42,30.58,30.42,11,2,17,0.00
2013-4-23,50.4,44.8,40.3,42.6,37.9,33.0,96,77,64,30.42,30.11,8,1,14,0.00
2013-4-24,72.0,60.7,39.7,55.6,50.3,38.0,95,70,50,30.11,29.79,8,2,15,0.00
2013-4-25,66.0,54.0,41.9,56.7,30.8,18.7,86,44,18,30.26,29.87,8,2,14,0.00
2013-4-26,66.9,53.5,39.6,38.7,29.8,22.1,77,44,20,30.40,30.26,6,1,9,0.00
2013-4-27,72.0,56.7,39.4,36.3,30.0,21.3,74,40,17,30.41,30.25,4,1,7,0.00
2013-4-28,74.7,58.8,43.5,44.4,35.9,25.1,74,46,24,30.28,30.17,7,1,11,0.00
2013-4-29,56.8,53.0,49.6,56.0,51.0,41.3,99,93,63,30.19,30.11,5,1,8,0.50
2013-4-30,71.4,58.1,45.7,52.0,43.2,27.4,99,64,26,30.30,30.15,8,1,12,0.04
2013-5-1,71.6,55.0,39.0,43.4,34.8,17.9,87,53,15,30.44,30.30,7,1,11,0.00
2013-5-2,74.1,57.8,38.8,46.3,40.5,34.3,99,59,29,30.43,30.30,6,1,8,0.00
2013-5-3,68.0,55.6,44.2,43.7,39.1,28.8,86,57,27,30.40,30.31,6,1,11,0.00
2013-5-4,72.3,55.3,38.8,48.7,40.9,37.0,99,65,30,30.34,30.19,6,1,9,0.00
2013-5-5,66.9,52.1,38.1,43.1,40.0,37.4,99,67,38,30.25,30.16,6,1,11,0.00
2013-5-6,70.0,55.3,41.9,53.8,48.2,39.8,98,79,54,30.21,30.10,4,1,8,0.00
2013-5-7,75.2,60.3,51.4,63.3,55.7,50.7,99,86,57,30.13,30.03,5,1,10,0.25
2013-5-8,71.1,61.9,57.0,63.9,58.7,52.8,99,90,66,30.03,29.91,4,1,8,0.35
2013-5-9,70.3,61.3,54.5,59.0,55.6,53.1,99,83,55,29.97,29.90,4,0,8,0.32
2013-5-10,85.6,69.4,53.1,65.1,56.4,50.1,99,68,34,30.00,29.89,4,0,8,0.25
2013-5-11,75.4,64.7,60.3,66.5,62.3,59.0,99,92,68,29.92,29.70,4,0,8,0.25
2013-5-12,68.9,58.1,43.2,59.9,41.2,23.3,99,59,22,29.96,29.69,8,1,12,0.02
2013-5-13,56.7,47.1,37.4,38.5,30.1,19.6,85,55,28,30.09,29.96,8,1,10,0.00
2013-5-14,63.0,49.0,32.0,40.3,29.3,21.7,97,52,22,30.13,30.01,7,1,11,0.00
2013-5-15,74.5,61.4,48.2,58.1,49.3,32.5,85,65,47,30.04,29.70,5,1,7,0.00
2013-5-16,63.0,59.8,57.4,57.9,56.8,56.0,95,90,83,29.73,29.71,2,0,3,0.00
2013-5-17,70.3,58.7,54.1,49.3,45.2,39.1,81,63,32,30.22,30.09,2,0,2,0.00
2013-5-18,69.3,61.6,55.2,55.9,53.1,48.8,99,76,54,30.27,30.21,4,1,6,0.05
2013-5-19,61.7,58.2,55.4,60.3,57.7,55.1,99,98,95,30.25,30.13,2,0,6,0.24
2013-5-20,78.8,67.5,57.2,69.9,62.9,56.9,99,86,67,30.15,29.97,2,0,3,0.01
2013-5-21,86.4,74.3,63.1,71.3,66.8,62.3,99,79,55,29.98,29.86,3,0,6,0.00
2013-5-22,87.1,75.7,66.7,72.5,68.6,65.7,98,80,54,29.92,29.82,4,0,7,0.00
2013-5-23,81.3,72.1,64.2,70.4,67.2,62.3,95,85,60,29.89,29.75,6,1,11,0.28
2013-5-24,64.0,52.9,44.2,62.3,49.6,38.1,98,89,73,30.00,29.70,7,1,14,0.09
2013-5-25,62.6,52.6,44.4,42.7,38.3,33.6,89,60,38,30.03,29.84,6,1,14,0.01
2013-5-26,69.1,57.8,45.5,41.9,37.2,31.7,70,48,26,30.19,29.99,6,1,10,0.00
2013-5-27,75.0,60.6,40.8,46.7,39.8,29.6,88,51,22,30.23,30.13,2,0,3,0.00
2013-5-28,64.0,59.1,52.3,62.4,54.9,43.9,98,86,67,30.18,30.08,2,0,4,0.26
2013-5-29,68.0,60.1,58.5,66.6,59.7,58.2,99,98,97,30.09,30.04,1,0,2,0.01
2013-5-30,80.4,73.4,67.1,65.3,64.3,63.2,91,74,60,30.11,30.08,1,0,2,0.00
2013-5-31,95.9,86.7,68.2,69.6,64.1,57.1,92,49,29,30.13,30.00,4,1,7,0.00
2013-6-1,92.5,80.8,67.6,69.1,66.4,63.5,92,64,42,30.03,29.90,3,1,6,0.00
2013-6-2,90.0,79.5,70.7,70.0,67.5,63.3,83,68,47,29.91,29.79,4,1,10,0.00
2013-6-3,82.8,71.4,61.9,72.6,67.4,60.2,98,88,58,29.88,29.58,2,0,4,0.59
2013-6-4,76.5,67.3,55.8,60.2,48.6,42.7,94,54,34,30.10,29.88,3,0,5,0.00
2013-6-5,81.0,66.6,47.7,52.6,46.3,39.7,86,52,25,30.19,30.07,2,0,4,0.00
2013-6-6,76.6,63.8,53.6,61.2,55.5,48.1,98,77,40,30.11,29.95,5,1,11,0.20
2013-6-7,65.1,62.2,59.5,64.7,61.6,59.0,99,98,96,29.95,29.59,6,1,10,3.31
2013-6-8,78.4,67.6,57.9,66.7,61.5,57.5,99,82,63,30.06,29.59,4,1,6,0.01
2013-6-9,85.5,72.0,56.5,64.5,59.1,54.8,98,67,38,30.17,30.06,3,0,6,0.00
2013-6-10,71.4,68.8,64.4,69.9,66.0,61.2,96,91,78,30.13,29.77,4,0,7,1.46
2013-6-11,83.1,73.7,64.9,69.8,64.7,59.2,98,75,53,29.77,29.67,5,1,10,0.04
2013-6-12,73.2,65.6,61.2,62.5,58.4,56.5,88,78,67,29.81,29.76,3,0,5,0.00
2013-6-13,80.6,70.4,58.6,70.1,64.9,54.8,96,83,66,29.70,29.39,4,1,7,0.38
2013-6-14,76.1,62.5,53.4,59.9,54.2,50.8,95,76,47,29.91,29.50,5,1,11,0.06
2013-6-15,84.0,69.8,54.1,62.1,55.6,51.5,95,64,40,30.02,29.91,4,0,7,0.00
2013-6-16,84.6,70.5,58.3,64.9,58.9,52.1,88,69,41,29.99,29.81,6,1,9,0.00
2013-6-17,88.2,75.9,64.0,69.0,64.4,61.9,95,70,45,29.92,29.84,4,0,6,0.00
2013-6-18,80.4,68.1,63.0,72.9,64.5,60.6,96,89,64,29.90,29.80,2,0,4,0.33
2013-6-19,63.5,61.4,61.3,62.1,60.0,59.9,95,95,94,29.88,29.86,1,0,2,0.00
2013-6-20,61.3,61.3,61.3,59.9,59.9,59.9,95,95,95,29.88,29.88,0,0,1,0.00
2013-6-22,86.4,79.5,61.0,64.8,62.8,52.3,73,57,46,32.57,29.99,2,0,4,0.00
2013-6-23,91.0,76.3,62.6,72.5,66.0,59.0,92,72,45,32.52,32.29,3,0,5,0.02
2013-6-24,72.1,72.1,71.4,69.1,69.1,68.2,90,90,89,32.42,32.41,0,0,1,0.00
2013-6-25,72.1,72.1,72.1,69.1,69.1,69.1,90,90,90,32.41,32.41,0,0,1,0.00
2013-6-26,72.1,72.1,72.1,69.1,69.1,69.1,90,90,90,32.41,32.41,0,0,1,0.00
2013-6-27,72.1,72.1,72.1,69.1,69.1,69.1,90,90,90,32.41,32.41,0,0,1,0.00
2013-6-28,72.1,72.1,72.1,69.1,69.1,69.1,90,90,90,32.41,32.41,0,0,1,0.00
2013-6-29,86.0,76.9,66.0,72.2,63.8,61.5,96,65,47,29.36,29.01,0,0,2,0.00
2013-6-30,86.9,74.2,68.4,73.3,69.3,62.3,91,85,63,29.52,29.32,1,0,2,0.21
2013-7-1,78.3,74.4,69.4,73.2,70.6,67.1,93,88,79,29.69,29.33,2,0,3,0.59
2013-7-2,84.6,76.9,72.3,72.0,70.2,67.4,88,80,63,29.88,29.49,2,0,4,0.01
2013-7-3,86.0,76.4,70.0,74.9,70.1,66.0,91,81,65,29.94,29.65,2,0,2,0.01
2013-7-4,90.0,80.6,72.3,74.3,70.7,67.8,93,73,54,29.93,29.84,5,0,8,0.00
2013-7-5,93.6,82.6,72.9,74.3,70.5,67.5,89,68,48,29.91,29.77,4,0,5,0.00
2013-7-6,97.0,84.5,73.6,74.8,70.9,67.5,90,66,43,29.84,29.56,2,0,4,0.00
2013-7-7,95.7,82.2,70.9,74.2,70.1,66.0,90,69,47,29.75,29.48,4,0,9,0.00
2013-7-8,89.4,76.1,68.4,71.0,67.0,64.3,91,75,52,29.75,29.50,3,0,5,0.00
2013-7-9,88.0,77.6,68.0,72.1,68.6,64.3,91,75,54,29.75,29.65,2,0,4,0.01
2013-7-10,89.1,79.8,72.3,74.7,71.2,69.2,92,76,56,29.68,29.47,5,1,8,0.00
2013-7-11,88.3,78.2,73.4,72.4,68.4,62.6,86,73,52,29.58,29.46,2,0,4,0.00
2013-7-12,76.3,72.1,68.7,67.3,61.9,59.6,75,70,65,29.67,29.57,4,0,8,0.00
2013-7-13,89.1,79.3,69.6,73.5,71.3,67.7,94,78,54,29.97,29.78,2,0,3,0.17
2013-7-14,94.3,82.5,72.1,76.3,71.0,67.7,95,70,48,30.03,29.92,1,0,2,0.01
2013-7-15,97.0,83.9,70.3,74.1,70.9,66.0,88,67,44,29.96,29.66,2,0,2,0.00
2013-7-16,97.3,83.9,70.9,71.5,69.0,65.8,89,64,39,29.91,29.65,1,0,2,0.00
2013-7-17,99.9,84.6,70.2,75.5,68.7,65.5,91,62,36,29.90,29.65,2,0,3,0.00
2013-7-18,101.1,87.0,75.0,76.0,72.0,68.6,82,63,42,29.77,29.61,2,0,4,0.00
2013-7-19,98.8,87.2,78.1,79.2,75.0,72.6,89,68,46,29.67,29.46,3,0,5,0.02
2013-7-20,93.6,83.2,75.4,73.3,69.5,65.9,76,64,50,29.52,29.41,7,1,10,0.00
2013-7-21,94.5,80.3,71.8,71.8,68.7,65.8,86,70,45,29.60,29.33,3,0,6,0.00
2013-7-22,90.0,76.1,70.7,75.0,70.1,66.2,93,82,55,29.56,29.24,2,0,5,0.69
2013-7-23,89.1,76.0,69.1,73.9,70.3,67.3,95,84,53,29.36,29.14,2,0,4,0.56
2013-7-24,82.8,73.7,63.9,71.8,63.8,52.5,93,72,54,29.60,29.30,2,0,4,0.00
2013-7-25,74.8,65.5,58.1,58.1,54.7,50.8,78,68,53,29.70,29.40,5,0,8,0.00
2013-7-26,86.2,70.3,59.4,62.6,57.7,55.2,90,67,40,29.72,29.66,1,0,2,0.00
2013-7-27,87.8,74.7,62.2,68.8,61.6,55.8,94,66,44,29.72,29.58,3,0,5,0.00
2013-7-28,83.5,72.4,64.6,70.6,65.4,60.1,94,79,65,29.65,29.37,3,0,4,0.32
2013-7-29,87.6,73.2,62.1,69.7,60.6,51.7,96,69,36,29.79,29.63,2,0,4,0.02
2013-7-30,85.3,70.0,56.5,61.1,56.6,53.5,92,66,38,29.87,29.74,2,0,3,0.00
2013-7-31,87.3,72.6,57.9,63.8,59.6,55.8,94,67,37,29.83,29.62,0,0,2,0.00
2013-8-1,72.1,68.8,64.9,69.2,64.6,59.2,95,87,71,29.71,29.29,3,0,4,0.80
2013-8-2,87.3,75.3,66.7,70.6,64.2,58.6,95,71,43,29.60,29.28,2,0,3,0.00
2013-8-3,75.7,69.6,64.6,66.4,62.9,59.3,91,80,68,29.42,29.34,1,0,2,0.02
2013-8-4,83.7,70.1,59.5,63.4,58.0,53.4,94,69,42,29.48,29.34,2,0,3,0.00
2013-8-5,81.9,67.1,52.9,56.4,52.4,42.6,92,63,28,29.72,29.48,0,0,2,0.00
2013-8-6,84.4,67.6,55.0,62.9,57.3,52.2,93,72,39,29.80,29.53,2,0,2,0.00
2013-8-7,77.7,70.0,64.8,66.9,64.6,61.2,93,83,65,29.78,29.52,1,0,2,0.05
2013-8-8,87.3,76.3,68.5,75.0,69.6,65.8,93,81,60,29.73,29.46,2,0,4,0.15
2013-8-9,85.5,78.1,74.5,75.5,71.7,69.4,88,81,65,33.37,29.39,1,0,2,0.01
2013-8-10,86.0,75.5,67.1,70.9,65.1,61.2,93,72,47,29.71,29.48,0,0,1,0.00
2013-8-11,88.0,74.2,60.1,65.3,60.2,54.6,91,65,37,29.76,29.50,1,0,2,0.00
2013-8-12,85.6,74.8,68.0,69.5,65.3,61.3,93,74,51,29.72,29.47,0,0,2,0.00
2013-8-13,81.7,72.6,63.9,69.8,66.5,61.5,95,82,61,29.59,29.35,4,0,6,2.59
2013-8-14,77.5,65.9,55.4,64.9,53.1,47.5,85,65,42,29.70,29.42,0,0,2,0.00
2013-8-15,83.3,67.6,51.8,55.3,50.4,45.1,93,58,29,29.82,29.54,0,0,1,0.00
2013-8-16,85.3,67.8,52.5,61.0,53.2,48.1,94,64,32,29.87,29.61,0,0,2,0.00
2013-8-17,89.6,70.4,54.7,62.0,55.4,52.4,93,63,33,29.97,29.73,0,0,1,0.00
2013-8-18,78.1,67.3,61.2,62.5,58.8,54.0,90,75,48,29.92,29.62,0,0,1,0.04
2013-8-19,78.1,68.3,59.5,65.9,61.0,57.5,93,79,54,29.82,29.54,1,0,2,0.00
2013-8-20,93.4,74.9,61.2,71.1,63.5,59.1,95,71,41,29.83,29.54,1,0,2,0.00
2013-8-21,93.6,76.7,63.7,69.7,64.5,57.4,94,70,33,29.88,29.73,1,0,2,0.00
2013-8-22,86.0,75.5,70.3,73.3,69.3,66.7,92,81,60,29.75,29.55,2,0,2,0.40
2013-8-23,75.6,69.0,64.9,66.7,64.0,60.2,93,84,62,29.68,29.57,0,0,1,0.00
2013-8-24,81.5,67.3,62.6,62.2,57.0,54.9,76,70,52,29.91,29.83,1,0,2,0.00
2013-8-25,86.2,82.0,75.7,66.4,64.2,63.2,67,55,47,29.79,29.63,1,0,2,0.00
2013-8-26,75.2,72.4,69.1,64.7,64.0,63.2,83,75,69,29.65,29.34,1,0,2,0.00
2013-8-27,91.8,82.1,70.3,67.6,65.5,63.9,84,59,43,29.58,29.36,1,0,2,0.00
2013-8-28,74.3,70.8,68.2,70.4,68.0,65.1,94,91,85,29.58,29.31,2,0,2,0.85
2013-8-29,74.3,70.1,69.4,69.4,68.4,68.0,95,94,84,29.67,29.33,2,0,3,0.00
2013-8-30,73.6,71.6,70.3,67.7,66.8,66.0,88,85,82,29.57,29.33,1,0,2,0.00
2013-8-31,89.8,80.8,70.3,72.6,70.4,66.9,89,71,55,29.54,29.32,2,0,2,0.00
2013-9-1,91.2,78.7,71.1,73.1,69.4,66.5,91,74,51,29.52,29.26,1,0,2,0.04
2013-9-2,80.8,74.3,70.3,72.7,69.5,66.5,92,85,66,29.46,29.21,1,0,2,0.18
2013-9-3,85.5,73.5,63.3,69.4,62.7,54.0,94,71,43,29.51,29.17,1,0,2,0.00
2013-9-4,84.6,69.1,57.0,60.4,55.9,53.4,90,65,41,29.70,29.38,1,0,2,0.00
2013-9-5,83.3,67.4,55.6,62.6,54.4,45.2,82,65,39,29.83,29.44,0,0,2,0.00
2013-9-6,78.3,60.5,48.4,47.0,43.9,37.7,84,58,25,29.92,29.62,0,0,2,0.00
2013-9-7,83.1,63.6,45.9,56.2,49.6,43.7,93,65,28,29.70,29.50,1,0,2,0.00
2013-9-8,86.7,70.7,57.2,65.5,57.7,44.7,84,65,47,29.64,29.43,1,0,2,0.00
2013-9-9,79.7,64.7,48.6,60.4,52.2,43.6,84,65,44,29.89,29.56,1,0,2,0.00
2013-9-10,89.4,76.3,67.1,72.3,67.5,60.4,87,75,53,29.81,29.55,1,0,2,0.00
2013-9-11,76.1,74.6,72.7,70.3,69.5,68.3,86,84,82,29.81,29.77,0,0,1,0.00
2013-9-12,58.8,58.0,56.8,55.2,54.0,52.4,89,87,85,29.60,29.55,0,0,1,0.00
2013-9-13,71.1,62.8,59.0,58.1,56.5,55.3,91,81,60,29.60,29.56,0,0,1,0.08
2013-9-14,69.3,60.6,52.5,55.2,50.6,46.9,81,70,56,29.75,29.56,0,0,1,0.00
2013-9-15,52.2,47.3,42.4,46.2,41.8,39.3,89,81,72,29.93,29.77,0,0,1,0.00
2013-9-16,68.2,60.9,50.5,42.6,39.8,37.9,70,47,34,29.95,29.84,0,0,1,0.00
2013-9-17,49.6,45.2,41.9,42.0,40.8,40.0,93,85,75,29.88,29.86,0,0,0,0.00
2013-9-18,74.7,61.0,40.6,49.2,43.9,39.0,94,58,30,29.89,29.70,0,0,1,0.00
2013-9-19,79.9,60.5,45.7,56.3,49.7,43.8,95,71,34,29.73,29.55,2,0,4,0.00
2013-9-20,84.6,65.3,51.8,61.4,54.6,49.7,94,72,42,29.72,29.50,1,0,2,0.00
2013-9-21,82.0,67.1,54.0,64.6,57.0,51.6,94,74,38,29.68,29.30,3,0,5,0.61
2013-9-22,74.3,60.8,49.3,60.2,51.4,43.2,96,74,42,29.46,29.25,2,0,3,0.27
2013-9-23,71.4,54.9,42.4,46.8,42.6,38.3,88,65,37,29.58,29.41,2,0,3,0.00
2013-9-24,73.9,55.7,39.2,49.9,44.3,36.7,93,68,39,29.64,29.40,0,0,2,0.00
2013-9-25,78.1,57.8,42.4,50.2,45.3,40.1,92,67,33,29.50,29.36,0,0,1,0.00
2013-9-26,81.5,60.4,47.8,56.3,51.3,45.4,95,75,37,29.59,29.44,1,0,2,0.00
2013-9-27,78.1,61.4,53.8,56.6,52.1,49.0,94,74,43,29.76,29.59,0,0,2,0.00
2013-9-28,77.4,62.3,51.8,55.5,50.3,45.1,92,68,35,29.99,29.72,0,0,2,0.00
2013-9-29,78.4,59.8,46.9,58.4,50.4,44.7,93,74,43,29.73,29.56,1,0,2,0.00
2013-9-30,79.9,59.4,46.2,56.5,49.8,44.7,96,74,35,29.60,29.47,1,0,2,0.00
2013-10-1,84.6,64.2,50.5,61.8,54.7,48.6,94,74,44,29.65,29.43,1,0,2,0.00
2013-10-2,86.4,69.2,56.1,62.9,58.5,53.8,94,72,44,29.70,29.44,0,0,1,0.00
2013-10-3,85.6,69.9,56.8,61.8,59.0,54.6,93,71,41,29.79,29.57,2,0,4,0.00
2013-10-4,89.8,72.2,61.9,67.1,62.4,59.6,95,74,42,29.73,29.51,1,0,2,0.00
2013-10-5,89.8,73.9,63.5,67.8,64.2,61.2,94,74,46,29.77,29.48,2,0,2,0.00
2013-10-6,80.4,68.8,64.2,68.7,64.5,61.6,95,87,64,29.73,29.62,1,0,2,0.07
2013-10-7,79.2,64.8,51.8,69.6,61.7,48.1,95,90,68,29.68,29.39,5,1,10,0.34
2013-10-8,61.0,48.1,44.8,49.8,45.6,43.3,96,92,62,29.76,29.48,0,0,1,0.00